Tracking 29068 objects as of 19-Jul-2024
HD Live streaming from Space Station
objects crossing your sky now

STARLINK-3786

Track STARLINK-3786 now!
10-day predictions
STARLINK-3786 is classified as:


NORAD ID: 52263
Int'l Code: 2022-041C
Perigee: 546.1 km
Apogee: 547.7 km
Inclination: 53.2 °
Period: 95.4 minutes
Semi major axis: 6917 km
RCS: Unknown
Launch date: April 21, 2022
Source: United States (US)
Launch site: AIR FORCE EASTERN TEST RANGE (AFETR)
Your satellite tracking list
Your tracking list is empty




NASA's NSSDC Master Catalog

Two Line Element Set (TLE):
1 52263U 22041C   24200.50792415  .00002246  00000-0  15919-3 0  9990
2 52263  53.2165 278.9544 0001127  81.8600 278.2520 15.08836893123907
Source of the keplerian elements: AFSPC